• In Hungary
  • List of Countries
  • For 7 days
  • Water Temperature
  • Satellite Maps
  • Weather Map
  • News
  • Weather Widgets
  • user-avatar
    Login

    Hourly Weather Halzanovo

    Today, 17 October, Tuesday

    Time Temperature Precipitation Wind Pressure Humidity
    00:00 -12°C° 0 mm 2 mps 624 mmHg 64%
    01:00 -12°C° 0 mm 2 mps 623 mmHg 64%
    02:00 -12°C° 0 mm 2 mps 623 mmHg 64%
    03:00 -12°C° 0 mm 2 mps 623 mmHg 64%
    04:00 -12°C° 0 mm 2 mps 622 mmHg 65%
    05:00 -12°C° 0 mm 2 mps 622 mmHg 63%
    06:00 -12°C° 0 mm 2 mps 622 mmHg 61%
    07:00 -9°C° 0 mm 1 mps 622 mmHg 57%
    08:00 -7°C° 0 mm 1 mps 623 mmHg 52%
    09:00 -4°C° 0 mm 1 mps 623 mmHg 47%
    10:00 -3°C° 0 mm 1 mps 623 mmHg 42%
    11:00 -2°C° 0 mm 1 mps 623 mmHg 41%
    12:00 -1°C° 0 mm 1 mps 624 mmHg 39%
    13:00 +1°C° 0 mm 1 mps 624 mmHg 38%
    14:00 0°C° 0 mm 1 mps 623 mmHg 43%
    15:00 -1°C° 0 mm 1 mps 623 mmHg 48%
    16:00 -2°C° 0 mm 1 mps 622 mmHg 53%
    17:00 -4°C° 0 mm 1 mps 622 mmHg 60%
    18:00 -6°C° 0 mm 1 mps 622 mmHg 66%
    19:00 -7°C° 0 mm 1 mps 621 mmHg 72%
    20:00 -7°C° 0 mm 1 mps 622 mmHg 74%
    21:00 -7°C° 0 mm 1 mps 622 mmHg 77%
    22:00 -8°C° 0 mm 2 mps 622 mmHg 79%
    23:00 -8°C° 0 mm 2 mps 622 mmHg 83%

    Tomorrow, 18 October, Wednesday

    Time Temperature Precipitation Wind Pressure Humidity
    00:00 -8°C° 0 mm 2 mps 622 mmHg 87%
    01:00 -8°C° 0 mm 2 mps 622 mmHg 90%
    02:00 -7°C° 0 mm 2 mps 622 mmHg 92%
    03:00 -7°C° 0 mm 2 mps 622 mmHg 93%
    04:00 -6°C° 0 mm 2 mps 623 mmHg 94%
    05:00 -6°C° 0 mm 2 mps 623 mmHg 94%
    06:00 -6°C° 0 mm 2 mps 623 mmHg 93%
    07:00 -6°C° 0 mm 2 mps 623 mmHg 93%
    08:00 -6°C° 0 mm 3 mps 624 mmHg 86%
    09:00 -5°C° 0 mm 3 mps 624 mmHg 80%
    10:00 -4°C° 0 mm 4 mps 624 mmHg 73%
    11:00 -4°C° 0 mm 4 mps 624 mmHg 70%
    12:00 -4°C° 0 mm 4 mps 624 mmHg 67%
    13:00 -5°C° 0 mm 5 mps 624 mmHg 65%
    14:00 -5°C° 0 mm 4 mps 624 mmHg 68%
    15:00 -7°C° 0 mm 4 mps 623 mmHg 72%
    16:00 -7°C° 0 mm 3 mps 623 mmHg 75%
    17:00 -7°C° 0 mm 3 mps 623 mmHg 80%
    18:00 -7°C° 0 mm 2 mps 623 mmHg 86%
    19:00 -8°C° 0 mm 2 mps 622 mmHg 91%
    20:00 -9°C° 0 mm 2 mps 622 mmHg 91%
    21:00 -9°C° 0 mm 2 mps 622 mmHg 92%
    22:00 -8°C° 0 mm 1 mps 622 mmHg 92%
    23:00 -8°C° 0 mm 1 mps 622 mmHg 93%

    Day after tomorrow, 19 October, Thursday

    Time Temperature Precipitation Wind Pressure Humidity
    00:00 -8°C° 0 mm 1 mps 622 mmHg 94%
    01:00 -9°C° 0 mm 1 mps 621 mmHg 94%
    02:00 -9°C° 0 mm 1 mps 621 mmHg 94%
    03:00 -9°C° 0 mm 1 mps 621 mmHg 95%
    04:00 -9°C° 0 mm 1 mps 621 mmHg 95%
    05:00 -8°C° 0 mm 1 mps 621 mmHg 94%
    06:00 -8°C° 0 mm 1 mps 621 mmHg 93%
    07:00 -8°C° 0 mm 1 mps 621 mmHg 92%
    08:00 -7°C° 0 mm 1 mps 621 mmHg 82%
    09:00 -6°C° 0 mm 2 mps 622 mmHg 71%
    10:00 -4°C° 0 mm 2 mps 622 mmHg 61%
    11:00 -4°C° 0 mm 2 mps 622 mmHg 59%
    12:00 -5°C° 0 mm 3 mps 622 mmHg 56%
    13:00 -4°C° 0 mm 3 mps 622 mmHg 54%
    14:00 -5°C° 0 mm 3 mps 622 mmHg 58%
    15:00 -5°C° 0 mm 2 mps 621 mmHg 62%
    16:00 -6°C° 0 mm 2 mps 621 mmHg 67%
    17:00 -8°C° 0 mm 2 mps 621 mmHg 73%
    18:00 -8°C° 0 mm 1 mps 621 mmHg 79%
    19:00 -9°C° 0 mm 1 mps 621 mmHg 85%
    20:00 -10°C° 0 mm 1 mps 621 mmHg 85%
    21:00 -10°C° 0 mm 1 mps 621 mmHg 85%
    22:00 -11°C° 0 mm 1 mps 621 mmHg 86%
    23:00 -11°C° 0 mm 1 mps 621 mmHg 85%

    20 October, Friday

    Time Temperature Precipitation Wind Pressure Humidity
    00:00 -11°C° 0 mm 1 mps 621 mmHg 85%
    01:00 -11°C° 0 mm 1 mps 621 mmHg 85%
    02:00 -12°C° 0 mm 1 mps 621 mmHg 84%
    03:00 -12°C° 0 mm 1 mps 621 mmHg 83%
    04:00 -12°C° 0 mm 1 mps 621 mmHg 83%
    05:00 -12°C° 0 mm 1 mps 621 mmHg 81%
    06:00 -12°C° 0 mm 1 mps 622 mmHg 79%
    07:00 -12°C° 0 mm 1 mps 622 mmHg 77%
    08:00 -10°C° 0 mm 1 mps 623 mmHg 65%
    09:00 -7°C° 0 mm 1 mps 624 mmHg 54%
    10:00 -4°C° 0 mm 1 mps 625 mmHg 42%
    11:00 -3°C° 0 mm 1 mps 624 mmHg 39%
    12:00 -3°C° 0 mm 1 mps 624 mmHg 37%
    13:00 -2°C° 0 mm 1 mps 624 mmHg 34%
    14:00 -3°C° 0 mm 1 mps 624 mmHg 38%
    15:00 -4°C° 0 mm 1 mps 623 mmHg 43%
    16:00 -7°C° 0 mm 0 mps 622 mmHg 47%
    17:00 -8°C° 0 mm 0 mps 622 mmHg 51%
    18:00 -9°C° 0 mm 0 mps 622 mmHg 54%
    19:00 -10°C° 0 mm 0 mps 622 mmHg 58%
    20:00 -10°C° 0 mm 1 mps 622 mmHg 58%
    21:00 -10°C° 0 mm 1 mps 622 mmHg 58%
    22:00 -10°C° 0 mm 1 mps 622 mmHg 58%
    23:00 -10°C° 0 mm 1 mps 621 mmHg 58%

    21 October, Saturday

    Time Temperature Precipitation Wind Pressure Humidity
    00:00 -11°C° 0 mm 1 mps 621 mmHg 58%
    01:00 -11°C° 0 mm 1 mps 621 mmHg 58%
    02:00 -11°C° 0 mm 1 mps 621 mmHg 59%
    03:00 -11°C° 0 mm 1 mps 621 mmHg 59%
    04:00 -11°C° 0 mm 1 mps 621 mmHg 59%
    05:00 -11°C° 0 mm 1 mps 621 mmHg 59%
    06:00 -11°C° 0 mm 1 mps 621 mmHg 58%
    07:00 -11°C° 0 mm 1 mps 621 mmHg 57%
    08:00 -8°C° 0 mm 1 mps 622 mmHg 49%
    09:00 -6°C° 0 mm 1 mps 623 mmHg 42%
    10:00 -2°C° 0 mm 1 mps 624 mmHg 34%
    11:00 -2°C° 0 mm 1 mps 624 mmHg 32%
    12:00 -1°C° 0 mm 1 mps 624 mmHg 30%
    13:00 0°C° 0 mm 1 mps 624 mmHg 28%
    14:00 -1°C° 0 mm 1 mps 623 mmHg 33%
    15:00 -3°C° 0 mm 1 mps 623 mmHg 38%
    16:00 -4°C° 0 mm 1 mps 622 mmHg 43%
    17:00 -6°C° 0 mm 1 mps 622 mmHg 47%
    18:00 -7°C° 0 mm 1 mps 622 mmHg 51%
    19:00 -9°C° 0 mm 1 mps 622 mmHg 55%
    20:00 -9°C° 0 mm 1 mps 622 mmHg 56%
    21:00 -9°C° 0 mm 1 mps 622 mmHg 58%
    22:00 -9°C° 0 mm 1 mps 622 mmHg 59%
    23:00 -9°C° 0 mm 1 mps 622 mmHg 59%

    22 October, Sunday

    Time Temperature Precipitation Wind Pressure Humidity
    00:00 -9°C° 0 mm 1 mps 622 mmHg 59%
    01:00 -9°C° 0 mm 1 mps 621 mmHg 60%
    02:00 -10°C° 0 mm 1 mps 621 mmHg 61%
    03:00 -10°C° 0 mm 1 mps 621 mmHg 61%
    04:00 -10°C° 0 mm 1 mps 621 mmHg 62%
    05:00 -9°C° 0 mm 1 mps 621 mmHg 64%
    06:00 -9°C° 0 mm 1 mps 621 mmHg 66%
    07:00 -9°C° 0 mm 1 mps 621 mmHg 67%
    08:00 -6°C° 0 mm 1 mps 622 mmHg 63%
    09:00 -5°C° 0 mm 2 mps 622 mmHg 58%
    10:00 -3°C° 0 mm 2 mps 622 mmHg 54%
    11:00 -2°C° 0 mm 2 mps 622 mmHg 53%
    12:00 -1°C° 0 mm 2 mps 622 mmHg 52%
    13:00 +1°C° 0 mm 2 mps 622 mmHg 51%
    14:00 -1°C° 0 mm 2 mps 622 mmHg 57%
    15:00 -1°C° 0 mm 1 mps 621 mmHg 64%
    16:00 -2°C° 0 mm 1 mps 621 mmHg 71%
    17:00 -3°C° 0 mm 1 mps 620 mmHg 75%
    18:00 -4°C° 0 mm 1 mps 620 mmHg 79%
    19:00 -6°C° 0 mm 1 mps 620 mmHg 84%
    20:00 -6°C° 0 mm 1 mps 620 mmHg 83%
    21:00 -6°C° 0 mm 1 mps 620 mmHg 83%
    22:00 -6°C° 0 mm 1 mps 619 mmHg 83%
    23:00 -6°C° 0 mm 1 mps 619 mmHg 83%
    Show more